This is the latest recevied weather packets stored in our database for station/object W7BTL. If no packets are shown the sender has not sent any weather packets the latest 10 day(s).
| Time | Temp. | Humidity | Pressure | Rain* | Wind** | Luminosity | Snow |
|---|---|---|---|---|---|---|---|
| 1778098579 | 31.67° C | 31% | 1017.2 hPa | 0 mm | - | 1019 W/m² | - |
| 1778098275 | 31.11° C | 32% | 1017.1 hPa | 0 mm | - | 1017 W/m² | - |
| 1778097972 | 30.56° C | 31% | 1017.1 hPa | 0 mm | - | 1021 W/m² | - |
| 1778097669 | 29.44° C | 34% | 1017.2 hPa | 0 mm | - | 1033 W/m² | - |
| 1778097365 | 29.44° C | 34% | 1017.4 hPa | 0 mm | - | 1032 W/m² | - |
| 1778097062 | 30.56° C | 33% | 1017.4 hPa | 0 mm | - | 1049 W/m² | - |
| 1778096759 | 30° C | 33% | 1017.2 hPa | 0 mm | - | 1031 W/m² | - |
| 1778096455 | 30° C | 33% | 1017.5 hPa | 0 mm | - | 1025 W/m² | - |
| 1778096153 | 30.56° C | 33% | 1017.5 hPa | 0 mm | - | 1042 W/m² | - |
| 1778095850 | 30.56° C | 33% | 1017.8 hPa | 0 mm | - | 1042 W/m² | - |
| 1778095547 | 28.89° C | 34% | 1017.7 hPa | 0 mm | - | 1034 W/m² | - |
| 1778095243 | 28.89° C | 35% | 1017.7 hPa | 0 mm | - | 1039 W/m² | - |
| 1778094940 | 30.56° C | 33% | 1017.8 hPa | 0 mm | - | 1051 W/m² | - |
| 1778094635 | 32.22° C | 30% | 1017.9 hPa | 0 mm | - | 898 W/m² | - |
| 1778094333 | 32.22° C | 28% | 1017.9 hPa | 0 mm | - | 1065 W/m² | - |
| 1778094030 | 32.78° C | 27% | 1017.8 hPa | 0 mm | - | 1055 W/m² | - |
| 1778093727 | 32.78° C | 28% | 1017.9 hPa | 0 mm | - | 1029 W/m² | - |
| 1778093424 | 31.67° C | 29% | 1017.8 hPa | 0 mm | - | 1015 W/m² | - |
| 1778093121 | 30.56° C | 31% | 1018 hPa | 0 mm | - | 1007 W/m² | - |
| 1778092819 | 29.44° C | 32% | 1018.1 hPa | 0 mm | - | 1006 W/m² | - |
| 1778092514 | 28.33° C | 34% | 1018.1 hPa | 0 mm | - | 1002 W/m² | - |
| 1778092211 | 30.56° C | 31% | 1018.3 hPa | 0 mm | - | 987 W/m² | - |
| 1778091908 | 31.11° C | 31% | 1018.3 hPa | 0 mm | - | 991 W/m² | - |
| 1778091605 | 30° C | 32% | 1018.2 hPa | 0 mm | - | 970 W/m² | - |
| 1778091303 | 28.89° C | 34% | 1018.4 hPa | 0 mm | - | 1000 W/m² | - |
* Rain latest hour (hover to see other rain measurements)
** Current wind speed in m/s (hover to see current wind gust speed)